Location: Bois Neuf
(42.7667°N, 0.6333°E)
Time: 17:08:34
(UTC+00:00)

Cosmos 1937 Rocket - Pass Details

Date: 07 June 2020
Orbit: 746 x 781 km, 74.0° (Epoch: 13 July)

Event Time Altitude Azimuth Distance (km) Brightness Sun altitude
Rises 00:59:22 0° 333° (NNW) 3,248 7.5 -22.9°
Reaches altitude 10° 01:01:50 10° 327° (NNW) 2,323 6.5 -22.7°
Maximum altitude 01:06:48 44° 257° (WSW) 1,066 4.0 -22.5°
Enters shadow 01:07:12 43° 244° (WSW) 1,078 3.9 -22.4°
